Lawton, OK

3:05 PM CST on November 23, 2017 (GMT -0600)
Lawton-Fort Sill Regional

Weather History for KLAW - December, 2012

Change the Weather History Date:

Friday, December 7, 2012

  Actual Average Record
Temperature  
Mean Temperature 46 °F -  
Max Temperature 55 °F 55 °F 82 °F (1966)
Min Temperature 37 °F 32 °F 8 °F (1950)
Degree Days  
Heating Degree Days 19    
Moisture  
Dew Point 40 °F    
Average Humidity 75    
Maximum Humidity 93    
Minimum Humidity 59    
Precipitation  
Precipitation 0.00 in - - ()
Sea Level Pressure  
Sea Level Pressure 29.86 in    
Wind  
Wind Speed 8 mph (NNE)    
Max Wind Speed 13 mph    
Max Gust Speed -    
Visibility 9 miles    
Events      
Averages and records for this station are not official NWS values.
T = Trace of Precipitation, MM = Missing Value Source: NWS Daily Summary

Daily Weather History Graph

Daily Weather History Graph

Search for Another Location

Airport or City:

Trip Planner

Search our weather history database for the weather conditions in past years. The results will help you decide how hot, cold, wet, or windy it might be!

Date:

Astronomy

Dec. 07, 2012 Rise Set
Actual Time 7:27 AM CST 5:23 PM CST
Civil Twilight 6:59 AM CST 5:50 PM CST
Nautical Twilight 6:28 AM CST 6:22 PM CST
Astronomical Twilight 5:58 AM CST 6:52 PM CST
Moon 1:02 AM CST (12/7) 1:08 PM CST (12/7)
Length of Visible Light 10h 50m
Length of Day
9h 55m
Last Quarter, 38% of the Moon is Illuminated
Dec 7
Last Quarter
Dec 13
New
Dec 19
First Quarter
Dec 28
Full
Jan 4
Last Quarter

Hourly Weather History & Observations

Time (CST) Temp. Windchill Dew Point Humidity Pressure Visibility Wind Dir Wind Speed Gust Speed Precip Events Conditions
12:53 AM 50.0 °F - 42.1 °F 74% 29.81 in 10.0 mi North 11.5 mph - N/A   Clear
1:53 AM 48.9 °F - 41.0 °F 74% 29.81 in 10.0 mi North 11.5 mph - N/A   Clear
2:53 AM 48.0 °F - 39.9 °F 74% 29.83 in 10.0 mi North 12.7 mph - N/A   Clear
3:53 AM 46.0 °F 40.2 °F 39.9 °F 79% 29.82 in 9.0 mi North 12.7 mph - N/A   Clear
4:53 AM 45.0 °F 39.7 °F 39.9 °F 82% 29.83 in 9.0 mi North 10.4 mph - N/A   Clear
5:53 AM 45.0 °F 39.7 °F 39.9 °F 82% 29.83 in 9.0 mi North 10.4 mph - N/A   Clear
6:53 AM 45.0 °F 39.7 °F 39.0 °F 80% 29.85 in 9.0 mi North 10.4 mph - N/A   Clear
7:53 AM 44.1 °F 39.5 °F 39.0 °F 82% 29.85 in 9.0 mi North 8.1 mph - N/A   Clear
8:53 AM 48.0 °F - 39.0 °F 71% 29.88 in 10.0 mi North 9.2 mph - N/A   Clear
9:53 AM 48.0 °F - 39.9 °F 74% 29.88 in 10.0 mi North 10.4 mph - N/A   Clear
10:53 AM 51.1 °F - 41.0 °F 68% 29.90 in 10.0 mi Calm Calm - N/A   Scattered Clouds
11:03 AM 51.8 °F - 39.2 °F 62% 29.90 in 10.0 mi North 4.6 mph - N/A   Mostly Cloudy
11:45 AM 51.8 °F - 41.0 °F 67% 29.88 in 10.0 mi North 4.6 mph - N/A   Scattered Clouds
11:53 AM 52.0 °F - 39.9 °F 63% 29.87 in 10.0 mi North 3.5 mph - N/A   Partly Cloudy
12:53 PM 53.1 °F - 41.0 °F 64% 29.85 in 10.0 mi North 3.5 mph - N/A   Clear
1:53 PM 54.0 °F - 41.0 °F 62% 29.82 in 10.0 mi South 3.5 mph - N/A   Clear
2:53 PM 55.0 °F - 41.0 °F 59% 29.82 in 10.0 mi Calm Calm - N/A   Clear
3:53 PM 55.0 °F - 42.1 °F 62% 29.81 in 10.0 mi ESE 3.5 mph - N/A   Clear
4:53 PM 54.0 °F - 41.0 °F 62% 29.82 in 10.0 mi ENE 4.6 mph - N/A   Clear
5:53 PM 50.0 °F - 39.0 °F 66% 29.85 in 10.0 mi East 3.5 mph - N/A   Clear
6:53 PM 46.0 °F - 37.9 °F 73% 29.87 in 10.0 mi Calm Calm - N/A   Clear
7:53 PM 39.9 °F - 35.1 °F 83% 29.90 in 10.0 mi Calm Calm - N/A   Clear
8:53 PM 37.0 °F - 33.1 °F 86% 29.92 in 9.0 mi Calm Calm - N/A   Clear
9:53 PM 37.0 °F 34.5 °F 33.1 °F 86% 29.94 in 9.0 mi North 3.5 mph - N/A   Clear
10:42 PM 44.6 °F 42.2 °F 42.8 °F 93% 29.93 in 6.0 mi NNE 4.6 mph - N/A   Mostly Cloudy
10:53 PM 44.1 °F 41.5 °F 42.1 °F 93% 29.93 in 6.0 mi NE 4.6 mph - N/A   Scattered Clouds
11:53 PM 41.0 °F 38.0 °F 39.0 °F 93% 29.93 in 4.0 mi North 4.6 mph - N/A   Clear